カタログに戻る

DELTA 1 R/B

運用中SSO
NORAD 1433·ROCKET BODY·🇺🇸 United States

打ち上げ Jul 2, 1965 から Cape Canaveral Space Force Station

Loading…

次のパス (今後24時間)

TLE

最新Source: Space-Track

元期: Sep 14, 2026, 21:35 UTC

1 01433U 65051B   26257.89990842  .00000541  00000-0  11536-3 0  9998
2 01433  98.5854  60.8004 0038521 358.0538   2.0506 14.62812585207948

AllMySatでDELTA 1 R/Bをリアルタイム追跡

Download on the App Store